Theta_e
303 302 301 304 304 305 300 296 287 302 308 295 296 291 294 297 297 300 298 299 297 295 295 293 294 293 296 298 297 293 296 293 288 289 295 295 295 293 292 287 285 288 287 288
303 302 302 303 304 305 300 291 292 302 304 286 290 293 294 296 296 296 296 295 298 298 295 291 294 296 301 299 298 295 295 289 286 287 291 292 290 293 293 293 291 288 285 287
303 303 302 302 303 305 300 292 285 292 295 296 290 289 289 290 296 296 298 296 298 295 293 296 293 294 298 299 300 298 297 290 288 286 290 293 289 291 293 291 287 287 289 291
304 304 304 304 303 304 300 292 287 291 285 287 290 290 288 287 287 294 295 293 295 294 290 292 292 295 296 296 297 296 295 286 290 292 294 293 292 292 292 290 291 287 291 292
304 304 303 304 304 304 294 289 287 290 289 290 288 288 286 285 288 289 288 289 291 294 290 291 289 292 293 293 297 295 295 287 291 287 293 294 290 293 293 293 292 292 293 293
304 304 305 304 304 303 293 293 295 292 287 287 287 286 286 287 289 290 291 290 290 289 291 293 294 294 294 293 291 292 290 287 285 283 289 288 284 289 293 294 296 295 290 296
303 303 304 304 304 302 298 295 292 288 283 286 286 286 288 287 289 288 291 291 289 292 294 293 292 292 292 292 292 294 289 288 286 283 285 278 290 296 296 294 296 297 297 298
301 303 304 304 304 303 298 299 293 288 283 287 286 286 286 288 289 288 288 289 292 293 289 284 282 284 283 284 289 291 293 289 283 280 280 285 288 292 292 292 292 298 297 299
299 300 303 304 304 303 300 298 299 293 284 284 288 285 286 284 285 283 284 287 291 292 287 283 276 275 281 281 284 290 290 291 285 282 278 276 287 294 297 296 285 297 295 296
298 298 299 303 303 303 299 296 299 292 284 288 288 285 285 288 286 283 283 284 283 288 283 279 277 277 284 277 277 280 283 283 280 280 279 283 291 293 296 283 287 291 293 293
296 298 298 300 303 303 299 294 299 293 286 288 290 290 287 287 287 282 283 284 283 283 280 279 279 278 281 280 281 282 282 282 281 282 279 276 292 292 288 290 292 292 293 293
295 297 298 297 302 302 302 291 297 298 290 288 292 292 293 292 291 288 285 285 285 286 282 283 284 279 282 281 276 285 279 284 282 285 285 291 294 293 295 294 291 291 292 293
294 296 297 297 301 302 300 291 294 293 285 286 286 286 292 293 293 294 284 287 288 287 290 285 283 279 283 278 279 281 285 289 283 283 286 289 293 295 295 294 292 295 295 294
294 296 297 296 301 302 301 291 294 292 288 281 283 289 289 293 293 293 292 290 291 290 289 284 281 279 285 280 282 281 284 285 283 283 286 288 289 291 293 293 294 295 296 296
293 295 296 295 302 302 299 293 294 295 288 281 282 284 289 290 291 290 291 290 288 286 282 281 279 283 282 283 283 280 284 282 281 280 286 285 287 291 292 292 293 294 293 292
293 295 295 295 301 301 291 283 292 295 293 283 277 285 284 288 288 287 288 289 287 285 282 281 284 286 283 278 277 283 286 287 288 285 288 289 290 291 293 291 291 291 291 290
293 294 296 294 300 297 288 285 289 296 292 283 277 278 281 286 287 287 286 287 285 283 282 281 282 282 283 279 275 282 284 286 286 289 289 287 289 287 290 290 290 288 287 286
293 294 295 295 299 297 288 291 296 294 286 284 277 276 278 284 280 279 285 281 283 283 282 283 281 282 282 276 280 283 284 285 285 286 288 287 288 289 286 286 285 283 284 283
294 295 294 295 292 284 285 294 297 291 286 277 278 274 273 282 281 282 280 282 276 282 278 279 280 278 274 278 280 281 283 282 282 279 280 281 281 283 283 284 284 282 284 281
294 290 286 281 284 294 294 285 282 282 281 280 278 281 274 280 279 278 279 280 277 274 277 281 277 275 280 281 281 270 270 270 270 272 277 276 275 277 279 280 283 283 283 281
285 282 281 287 294 286 282 277 277 276 275 279 277 280 275 281 276 276 280 276 277 271 276 275 275 274 279 266 266 265 265 266 266 267 267 269 270 271 271 273 279 278 278 275
285 284 286 284 281 278 274 271 273 274 272 274 276 277 280 279 281 278 276 274 274 269 277 273 270 275 261 259 259 260 260 261 261 263 264 264 265 266 265 268 272 272 272 270
286 282 278 277 273 270 269 267 268 269 272 274 276 275 277 278 280 277 274 270 270 273 270 270 273 261 257 255 256 257 258 259 259 260 261 262 261 260 261 264 264 266 265 266
278 275 269 271 269 271 271 273 272 268 273 275 277 274 275 277 275 275 270 273 272 268 267 269 266 255 253 255 256 255 255 255 256 258 259 259 259 259 258 260 262 263 262 263
271 274 267 266 261 260 260 262 264 260 266 272 273 274 277 275 274 275 274 268 267 269 269 263 256 254 253 254 254 254 255 255 255 257 257 257 257 257 257 258 260 260 260 259
262 257 263 262 264 260 261 261 259 260 264 266 272 271 271 271 273 271 270 269 267 269 256 255 255 254 253 253 254 254 255 255 255 256 256 256 256 255 255 256 256 258 259 259
258 254 254 256 257 256 254 257 257 259 263 269 270 267 268 270 268 268 265 268 256 253 254 254 254 253 253 253 254 255 255 255 255 256 256 256 257 257 255 254 255 255 255 255
Wind_Speed
15 13 13 11 8 8 4 1 4 2 7 8 5 12 6 2 10 12 7 8 10 10 6 7 15 12 8 3 5 7 12 5 12 11 3 4 14 18 19 8 6 6 6 18
17 18 14 11 11 15 3 3 2 2 5 11 12 13 20 17 9 12 12 12 13 11 12 7 13 12 4 7 3 3 2 3 3 5 6 2 7 14 9 18 2 11 9 14
21 20 18 17 12 16 6 2 5 4 5 10 12 17 17 19 11 15 14 6 14 15 16 11 5 9 3 5 8 7 8 6 7 10 2 4 6 13 16 17 13 20 18 25
23 22 21 19 18 14 5 5 6 5 9 12 14 14 8 19 14 14 11 8 17 15 14 17 21 18 16 8 4 5 9 6 12 20 23 23 20 19 16 19 23 23 25 25
23 26 24 22 19 18 7 5 5 3 6 12 19 14 14 16 19 12 14 17 15 16 18 18 10 2 6 14 9 10 4 5 9 16 21 20 22 20 18 21 24 24 30 28
23 26 27 25 24 21 5 1 3 4 8 8 13 18 19 11 14 13 15 13 14 12 10 5 7 5 3 3 3 4 6 3 3 11 11 10 11 21 25 24 24 22 22 26
25 27 27 28 29 27 8 5 2 6 8 10 14 8 21 18 14 13 9 7 8 5 6 3 3 6 9 11 15 14 12 8 3 9 3 14 8 8 18 26 26 25 25 28
23 25 28 29 30 30 11 6 5 3 8 13 14 16 7 13 15 12 9 5 4 5 3 1 3 4 3 10 17 19 17 13 9 11 18 20 22 16 9 10 21 18 19 22
27 24 28 30 31 32 14 9 7 5 2 9 16 11 13 8 7 3 3 2 4 4 3 3 7 7 2 4 4 14 19 21 17 16 18 21 20 18 12 17 19 15 7 13
28 24 24 32 32 33 14 7 14 6 5 10 10 12 13 12 9 4 3 4 2 2 6 8 9 11 3 9 9 5 5 9 18 18 18 14 11 23 8 13 8 3 0 9
30 27 27 24 33 33 21 8 15 11 5 5 14 17 10 10 11 9 4 5 3 4 9 7 7 8 8 12 17 10 9 6 10 13 15 22 7 4 12 4 1 6 8 7
31 30 25 31 35 34 29 6 12 9 7 1 6 14 15 18 16 9 5 2 3 6 6 6 4 5 4 7 11 15 19 16 11 7 3 3 3 5 5 3 6 14 12 12
31 30 28 26 32 35 31 7 12 11 5 3 3 10 11 4 5 8 7 4 6 4 1 2 3 8 2 10 13 17 14 6 12 16 17 10 5 9 9 13 13 17 12 15
28 33 27 23 36 35 33 8 11 11 4 5 6 2 15 14 11 12 11 5 5 3 1 3 5 6 5 8 8 9 8 5 8 13 17 11 15 12 10 10 10 16 14 12
28 29 26 23 33 34 19 8 13 14 9 7 6 4 12 11 14 16 14 12 9 4 4 5 7 6 7 8 10 13 15 17 12 13 12 11 20 20 14 7 8 11 15 20
29 27 27 21 35 34 10 5 9 15 7 4 6 4 6 10 12 16 15 10 6 4 4 6 6 9 5 7 13 21 17 18 17 18 19 16 19 15 12 14 15 15 13 14
29 24 27 23 32 17 10 5 8 21 7 4 5 6 3 6 6 5 6 7 3 4 3 6 9 9 7 9 18 29 16 20 21 20 13 12 16 13 14 9 11 7 9 9
28 26 23 25 36 21 10 3 27 20 6 3 6 5 6 7 6 5 5 5 4 5 5 5 9 7 7 11 21 19 17 19 23 23 18 17 21 17 11 4 2 7 11 7
27 24 19 13 9 5 5 18 31 4 3 6 5 9 6 5 4 4 4 5 5 5 7 9 6 9 11 13 16 18 19 14 15 12 7 7 8 12 12 8 10 11 16 6
23 11 7 5 5 31 24 5 4 4 3 2 4 5 6 8 6 5 6 4 4 5 7 4 7 14 20 18 13 9 9 10 11 8 16 6 7 8 9 11 13 12 14 6
5 3 4 5 27 6 4 4 4 3 4 3 4 4 9 3 7 5 5 4 4 4 5 6 6 9 10 8 8 10 11 11 11 10 11 12 13 13 12 13 12 8 6 5
5 10 8 3 4 4 6 4 3 2 5 3 6 5 6 5 3 3 4 4 4 7 1 4 8 9 7 10 12 12 12 12 12 11 11 11 12 9 10 9 8 3 2 6
6 8 5 2 2 5 5 6 4 5 6 6 5 6 5 4 2 3 4 5 6 1 4 6 5 4 7 9 9 11 11 10 10 11 9 9 9 7 6 6 4 1 3 4
6 4 6 4 4 3 2 4 7 5 6 9 8 5 3 3 4 4 5 4 2 6 6 10 3 6 8 9 9 8 11 10 11 11 11 9 8 7 6 5 4 3 6 6
6 4 5 4 4 6 5 5 5 5 2 4 6 4 2 4 4 4 4 4 7 7 7 3 4 7 8 9 10 10 10 10 9 9 8 8 6 5 7 8 6 6 7 8
7 11 5 1 5 3 4 6 5 3 2 2 3 4 3 3 3 7 9 5 7 1 2 3 6 7 7 8 9 10 10 9 8 7 7 6 5 5 4 8 10 8 9 9
6 5 5 4 7 6 4 4 3 4 2 4 4 6 6 3 3 5 2 5 3 3 3 4 5 7 8 8 8 8 8 8 7 5 5 5 4 3 8 12 9 9 10 10
Wind_Direction
222 235 242 250 224 169 184 241 231 91 198 190 204 228 211 171 231 226 241 259 230 205 198 211 212 225 228 65 151 178 227 280 240 216 104 296 245 229 211 212 197 244 286 269
219 217 226 230 224 179 148 224 264 87 219 205 213 224 220 226 214 224 229 229 216 218 226 217 234 245 260 164 234 165 117 289 243 237 211 199 238 224 251 236 262 216 216 254
226 217 215 212 218 205 206 206 204 153 223 262 241 216 220 215 223 241 222 241 229 223 215 220 226 221 235 190 196 183 96 187 231 233 215 84 217 233 234 235 233 245 239 254
226 221 210 214 209 207 203 207 228 188 195 224 220 227 216 213 215 220 223 229 233 214 230 234 238 242 249 166 197 186 168 225 221 247 262 277 274 270 244 222 235 239 259 251
233 222 214 206 208 198 200 203 213 196 284 218 205 214 220 228 215 189 214 233 226 230 240 239 241 315 296 247 182 215 166 252 256 264 260 257 254 250 241 229 232 239 247 258
236 225 214 206 204 196 189 188 276 256 213 206 203 212 218 224 220 220 244 243 223 218 239 327 336 311 253 269 340 228 183 181 169 261 269 275 260 237 240 245 244 243 248 261
247 229 220 211 204 200 210 160 191 210 228 213 211 226 216 225 217 216 203 232 200 101 62 344 293 254 253 246 246 237 256 250 216 281 259 235 237 262 244 244 252 254 254 256
252 250 220 211 204 202 207 181 176 210 229 216 220 217 201 220 220 226 244 174 55 75 78 60 287 208 247 230 238 233 226 247 257 248 257 285 282 257 246 241 256 254 251 256
255 252 236 214 207 205 203 204 193 194 235 216 216 208 218 185 174 157 197 48 348 165 176 174 229 235 246 238 239 219 223 222 225 239 246 260 268 275 266 258 259 274 342 301
252 255 266 219 210 207 199 201 187 188 232 242 196 212 209 204 191 220 125 159 108 270 171 215 235 240 261 234 243 259 197 223 234 240 246 253 255 275 280 252 265 193 76 312
250 252 250 269 208 209 200 191 187 184 201 255 220 215 212 190 203 201 139 143 199 177 202 208 209 238 234 228 248 246 240 225 220 228 238 250 12 329 236 353 307 314 305 277
248 243 250 243 214 203 200 195 186 181 201 112 211 229 229 218 202 204 184 132 131 188 209 215 212 225 240 231 249 228 242 240 257 244 252 211 221 237 246 138 301 304 295 292
245 243 240 249 234 201 196 164 168 169 162 138 191 208 212 205 216 200 183 219 195 193 307 358 268 249 263 236 238 256 252 243 251 272 266 277 258 271 275 287 273 267 270 286
240 235 230 260 222 199 195 166 169 171 128 193 181 261 210 213 204 208 227 242 179 229 165 235 250 249 213 250 262 272 272 300 269 285 270 291 275 273 274 293 281 268 282 292
240 233 234 264 200 192 196 162 175 176 170 174 146 125 204 206 201 203 209 212 210 202 208 221 236 239 246 254 266 255 242 254 257 259 266 267 274 278 294 298 264 271 290 294
233 222 240 252 198 192 154 178 187 183 137 145 167 100 151 180 195 205 204 200 208 203 204 230 238 243 253 255 251 255 255 255 257 268 267 266 270 275 271 264 259 274 277 274
223 220 229 242 197 184 185 179 144 171 110 154 135 146 113 146 133 160 171 174 173 204 220 231 249 246 234 252 256 260 261 265 265 261 270 266 264 267 274 241 254 262 271 263
206 220 217 258 177 191 166 142 150 144 113 157 155 115 147 183 150 150 178 179 187 214 230 237 238 245 228 241 248 264 262 264 264 264 258 260 267 277 276 258 205 263 264 266
200 201 232 185 204 126 142 151 154 88 146 146 164 144 153 171 139 115 162 188 199 205 223 229 219 231 230 243 255 261 263 282 298 323 320 306 283 278 291 285 261 249 266 238
188 189 195 121 147 125 114 77 151 149 168 142 130 97 130 174 156 158 148 174 214 216 216 219 224 243 250 255 273 4 354 343 347 315 282 314 301 323 317 290 270 259 262 245
163 156 101 137 120 83 86 131 136 137 130 131 106 126 130 205 155 142 209 174 190 233 209 209 228 249 235 26 4 357 346 334 324 311 296 287 282 286 291 292 279 265 252 217
167 118 80 99 88 85 93 98 148 124 113 121 150 124 106 139 149 139 169 194 163 235 47 240 245 249 29 12 349 341 338 327 320 313 300 297 292 296 293 289 302 308 207 155
66 55 74 88 54 114 127 143 108 123 150 156 161 119 111 134 163 110 146 188 221 61 224 239 266 48 5 345 331 327 324 329 323 320 319 313 309 315 318 314 349 22 87 84
61 64 80 47 105 110 115 121 122 96 113 128 110 101 117 111 147 131 187 192 167 237 239 246 70 11 335 329 326 326 325 326 323 321 322 323 327 328 339 355 5 88 91 83
64 27 68 63 95 42 60 61 87 43 70 112 106 84 128 132 153 185 191 195 230 222 243 38 3 338 330 327 329 322 320 326 322 327 325 327 341 355 10 5 29 63 77 87
45 34 93 53 85 75 55 51 76 2 69 117 60 97 119 167 199 190 208 228 221 184 46 348 330 336 331 323 319 318 316 319 322 330 333 342 4 22 34 39 33 38 64 75
43 54 36 22 44 61 63 20 34 341 278 111 132 147 179 84 210 227 203 248 36 338 322 322 331 325 324 318 315 321 324 331 337 350 14 16 20 55 62 57 41 51 60 66